Location: Arrien
(43.3167°N, 0.1500°W)
Time: 03:48:31
(UTC+00:00)

COSMO-SKYMED 1 - Pass Details

Date: 15 October 2021
Orbit: 621 x 623 km, 97.9° (Epoch: 02 December)

Event Time Altitude Azimuth Distance (km) Brightness Sun altitude
Rises 18:20:13 0° 10° (N) 2,916 5.9 -12.2°
Reaches altitude 10° 18:22:26 10° 8° (N) 2,004 5.1 -12.6°
Maximum altitude 18:26:46 70° 285° (WNW) 665 2.9 -13.4°
Drops below altitude 10° 18:31:04 10° 202° (SSW) 1,987 5.4 -14.2°
Sets 18:33:15 0° 200° (SSW) 2,888 6.2 -14.6°
